SCP
0 0 0 0 0 0 0 0 0 0 0 0 0 0 0 0 0 0 0 0 0 0 0 0 0 0 0 0 0 0 0 0 0 0 0 0 0 0 0 0 0 0 0
0 0 0 0 0 0 0 0 0 0 0 0 0 0 0 0 0 0 0 0 0 0 0 0 0 0 0 0 0 0 0 0 0 0 0 0 0 0 0 0 0 0 0
0 0 0 0 0 0 0 0 0 0 0 0 0 0 0 0 0 0 0 0 0 0 0 0 0 0 0 0 0 0 0 0 0 0 0 0 0 0 0 0 0 0 0
0 0 0 0 0 0 0 0 0 0 0 0 0 0 0 0 0 0 0 0 0 0 0 0 0 0 0 0 0 0 0 0 0 0 0 0 0 0 0 0 0 0 0
0 0 0 0 0 0 0 0 0 0 0 0 0 0 0 0 0 0 0 0 0 0 0 0 0 0 0 0 0 0 0 0 0 0 0 0 0 0 0 0 0 0 0
0 0 0 0 0 0 0 0 0 0 0 0 0 0 0 0 0 0 0 0 0 0 0 0 0 0 0 0 0 0 0 0 0 0 0 0 0 0 0 0 0 0 0
0 0 0 0 0 0 0 0 0 0 0 0 0 0 0 0 0 0 0 0 0 0 0 0 0 0 0 0 0 0 0 0 0 0 0 0 0 0 0 0 0 0 0
0 0 0 0 0 0 0 0 0 0 0 0 0 0 0 0 0 0 0 0 0 0 0 0 0 0 0 0 0 0 0 0 0 0 0 0 0 0 0 0 0 0 0
0 0 0 0 0 0 0 0 0 0 0 0 0 0 0 0 0 0 0 0 0 0 0 0 0 0 0 0 0 0 0 0 0 0 0 0 0 0 0 0 0 0 0
0 0 0 0 0 0 0 0 0 0 0 0 0 0 0 0 0 0 0 0 0 0 0 0 0 0 0 0 0 0 0 0 0 0 0 0 0 0 0 0 0 0 0
0 0 0 0 0 0 0 0 0 0 0 0 0 0 0 0 0 0 0 0 0 0 0 0 0 0 0 0 0 0 0 0 0 0 0 0 0 0 0 0 0 0 0
0 0 0 0 0 0 0 0 0 0 0 0 0 0 0 0 0 0 0 0 0 0 0 0 0 0 0 0 0 0 0 0 0 0 0 0 0 0 0 0 0 0 0
0 0 0 0 0 0 0 0 0 0 0 0 0 0 0 0 0 0 0 0 0 0 0 0 0 0 0 0 0 0 0 0 0 0 0 0 0 0 0 0 0 0 0
0 0 0 0 0 0 1 1 1 0 0 0 0 0 0 0 0 0 0 0 0 0 0 0 0 0 0 0 0 0 0 0 0 0 0 0 0 0 0 0 0 0 0
0 0 0 0 0 0 1 1 1 1 1 1 0 0 0 0 0 0 0 0 0 0 0 0 0 0 0 0 0 0 0 0 0 0 0 0 0 0 0 0 0 0 0
0 0 0 0 0 0 0 1 1 1 1 1 1 0 0 0 0 0 0 1 0 0 0 0 0 0 0 0 0 0 0 0 0 0 0 0 0 0 0 0 0 0 0
0 0 0 0 0 0 0 0 0 0 1 1 0 0 0 0 0 0 1 1 0 0 0 0 0 0 0 0 0 0 0 0 0 0 0 0 0 0 0 0 0 0 0
0 0 0 0 0 0 0 0 0 0 0 0 0 0 0 0 0 0 0 0 0 0 0 0 0 0 0 0 0 0 0 0 0 0 0 0 0 0 0 0 0 0 0
0 0 0 0 0 0 0 0 0 0 0 0 0 0 0 0 0 0 0 0 0 0 0 0 0 0 0 0 0 0 0 0 0 0 0 0 0 0 0 0 0 0 0
0 0 0 0 0 0 0 0 0 0 0 0 0 0 0 0 0 0 0 0 0 0 0 0 0 0 0 0 0 0 0 0 0 0 0 0 0 0 0 0 0 0 0
0 0 0 0 0 0 0 0 0 0 0 0 0 0 0 0 0 0 0 0 0 0 0 0 0 0 0 0 0 0 0 0 0 0 0 0 0 0 0 0 0 0 0
0 0 0 0 0 0 0 0 0 0 0 0 0 0 0 0 0 0 0 0 0 0 0 0 0 0 0 0 0 0 0 0 0 0 0 0 0 0 0 0 0 0 0
0 0 0 0 0 0 0 0 0 0 0 0 0 0 0 0 0 0 0 0 0 0 0 0 0 0 0 0 0 0 0 0 0 0 0 0 0 0 0 0 0 0 0
0 0 0 0 0 0 0 0 0 0 0 0 0 0 0 0 0 0 0 0 0 0 0 0 0 0 0 0 0 0 0 0 0 0 0 0 0 0 0 0 0 0 0
0 0 0 0 0 0 0 0 0 0 0 0 0 0 0 0 0 0 0 0 0 0 0 0 0 0 0 0 0 0 0 0 0 0 0 0 0 0 0 0 0 0 0
0 0 0 0 0 0 0 0 0 0 0 0 0 0 0 0 0 0 0 0 0 0 0 0 0 0 0 0 0 0 0 0 0 0 0 0 0 0 0 0 0 0 0
Wind_Speed
3 3 2 2 3 3 4 3 2 3 3 3 3 3 2 2 2 3 7 9 7 7 7 8 8 7 7 7 7 7 7 7 7 7 7 7 7 7 7 7 7 6 6
3 3 4 3 3 3 2 2 3 3 3 2 3 3 2 2 3 2 4 9 9 7 7 7 7 8 7 7 7 7 7 7 7 7 7 7 7 7 7 7 7 7 6
4 4 4 4 3 3 3 3 3 3 4 4 3 3 2 2 3 3 3 4 8 10 8 8 8 8 8 8 8 8 8 8 8 8 8 7 7 7 7 7 7 7 7
5 5 4 4 3 4 4 3 4 3 3 3 3 3 2 3 4 4 4 4 4 6 10 10 9 8 9 9 9 9 9 10 9 9 9 9 9 8 8 8 8 7 7
7 6 4 3 4 4 4 4 4 3 3 3 3 3 3 3 4 5 4 5 5 5 5 10 11 10 10 10 10 10 10 11 11 11 11 10 10 10 9 9 9 8 8
7 6 5 5 6 5 4 4 3 3 3 3 4 2 3 3 4 4 5 5 5 6 6 6 8 10 12 11 11 11 11 12 12 12 12 12 11 11 10 10 10 10 10
7 7 6 6 6 6 5 6 5 6 5 4 3 3 4 5 5 4 5 5 6 6 6 6 6 5 7 13 12 11 12 12 13 13 13 12 12 12 12 12 11 11 11
8 8 8 7 7 5 6 6 6 5 5 5 4 4 4 4 6 6 5 6 6 6 7 8 7 6 6 6 9 14 13 13 13 13 13 13 13 13 13 13 12 12 12
9 8 9 8 6 7 6 7 7 8 6 5 5 4 4 3 2 4 6 6 5 5 6 6 8 8 8 7 6 12 14 13 13 14 14 14 13 13 13 13 13 13 13
9 9 10 9 8 7 7 8 8 6 7 6 5 5 5 3 3 3 5 6 7 7 7 6 7 8 8 7 6 6 11 12 12 13 13 13 13 13 14 14 14 14 13
8 9 9 8 8 7 7 8 6 7 6 7 5 5 5 5 7 6 4 4 5 6 6 7 6 6 7 7 6 7 10 10 11 11 11 12 12 13 14 14 15 15 14
6 8 8 8 8 7 8 8 7 9 7 7 6 5 5 5 6 6 6 5 4 4 5 4 5 5 5 6 6 5 8 9 9 10 10 11 11 12 12 13 14 14 14
5 7 7 7 7 8 8 8 8 8 8 8 8 7 6 6 5 5 5 5 5 4 4 5 5 5 5 5 4 6 7 8 8 9 9 9 10 10 10 11 12 12 12
5 5 6 7 7 8 8 7 7 8 7 8 9 8 6 6 6 6 6 5 6 5 4 5 3 4 4 4 2 6 5 7 7 8 8 9 9 9 9 9 9 9 9
4 5 6 6 7 7 8 7 6 7 7 7 7 8 7 6 6 6 5 5 6 6 5 4 3 3 3 3 2 4 4 4 6 7 7 7 7 8 8 8 7 7 7
4 4 5 5 5 6 6 6 6 6 6 6 5 6 7 6 5 5 5 5 5 6 6 3 2 2 2 2 3 4 3 4 4 5 5 5 6 5 6 6 5 5 5
2 3 3 3 3 4 4 4 5 5 6 6 6 6 6 6 4 4 4 4 5 5 6 5 2 1 2 3 2 2 3 3 2 4 4 4 4 4 5 4 4 4 4
1 1 1 1 2 3 3 4 4 5 5 5 5 5 5 4 4 4 3 4 4 4 5 5 3 2 2 2 2 2 2 1 0 5 5 4 3 4 4 4 4 3 3
1 1 1 1 1 2 2 2 3 3 4 4 4 4 4 3 3 2 3 3 3 3 3 4 3 1 1 1 1 1 1 1 1 4 6 6 5 5 4 4 4 3 3
2 2 2 2 2 1 1 1 1 1 1 1 1 1 2 2 2 2 2 3 2 2 2 3 2 1 1 1 1 1 1 0 1 1 3 4 6 7 5 5 4 4 4
3 3 3 3 3 2 2 1 1 1 1 0 0 0 1 2 2 1 1 1 1 2 2 2 1 1 0 1 1 1 1 1 1 1 1 1 3 3 3 5 6 6 6
4 4 4 4 5 4 7 6 3 2 2 1 1 2 2 3 5 5 5 5 4 1 1 0 0 0 1 1 1 1 1 1 0 1 1 1 2 2 3 4 7 7 6
4 5 5 6 6 7 8 7 7 4 4 4 3 3 2 4 4 4 6 8 9 10 7 3 2 2 2 2 1 1 1 1 1 0 0 1 2 2 3 5 8 7 6
5 5 6 6 6 7 8 6 6 6 6 5 5 5 4 5 5 5 5 7 7 8 7 5 5 4 4 3 2 0 1 2 2 2 2 0 1 2 3 4 8 7 6
6 6 6 6 6 7 8 6 4 5 6 7 7 7 6 6 7 6 7 8 8 7 9 11 9 7 8 7 5 1 1 1 2 2 2 1 1 0 1 2 5 7 6
6 6 7 7 7 8 9 8 4 4 6 6 7 8 11 10 9 7 6 7 7 5 5 5 6 5 5 6 6 5 3 2 1 2 3 1 0 0 0 1 2 3 4
Wind_Direction
169 155 148 163 178 161 172 185 169 150 163 163 163 156 139 119 117 137 129 150 163 169 172 171 170 169 170 171 169 166 166 164 165 164 164 165 165 164 163 161 160 160 158
168 171 176 187 187 184 170 185 172 186 197 177 180 158 183 144 137 174 150 155 171 180 185 185 184 183 182 184 182 180 179 178 177 179 179 179 178 178 177 175 176 176 173
178 196 190 195 189 178 176 199 189 202 202 192 185 180 188 192 159 176 183 171 170 181 190 195 199 197 197 198 198 196 195 192 191 193 192 192 192 192 191 191 190 188 187
198 211 207 203 189 201 194 188 208 207 204 207 194 202 184 186 188 193 197 198 195 178 181 191 201 204 206 208 208 207 206 202 201 202 202 203 204 203 201 200 201 200 199
205 217 220 203 208 211 208 216 188 215 205 217 209 201 213 206 201 206 206 209 202 205 185 173 193 206 212 216 215 214 212 209 208 209 210 211 211 210 209 210 211 211 211
211 222 220 207 218 215 214 219 203 218 228 227 238 209 227 219 219 211 221 214 209 212 209 186 190 199 209 218 221 221 218 216 214 214 215 216 216 216 215 215 216 218 219
215 222 232 208 222 218 219 215 210 206 219 215 231 228 229 228 223 214 221 228 216 217 218 208 218 214 195 204 215 221 222 219 218 217 218 219 219 218 218 219 220 222 224
221 219 226 227 220 221 217 222 218 232 224 209 229 239 233 216 219 219 212 217 224 215 217 213 215 221 237 209 194 206 218 223 223 220 219 221 221 220 220 222 223 224 226
223 231 227 230 224 227 216 219 218 224 230 224 226 242 258 249 229 206 217 220 221 224 228 221 218 216 223 228 210 197 207 218 225 228 225 224 222 221 221 224 226 229 229
227 228 229 229 227 229 222 224 218 224 228 230 220 232 258 298 273 242 212 210 215 222 233 235 228 217 221 225 218 212 199 212 224 231 231 227 223 222 223 225 228 231 231
230 230 229 229 225 230 229 233 226 229 227 235 236 230 233 237 244 261 258 231 219 220 223 227 237 236 227 228 224 210 192 209 221 228 231 231 228 225 225 227 229 231 231
228 228 229 228 227 228 226 227 227 226 234 240 246 246 238 239 240 245 252 247 237 227 220 230 236 236 234 231 222 182 190 205 215 223 229 232 232 230 228 228 230 232 232
227 223 228 227 229 229 230 228 226 235 232 233 237 242 243 247 254 260 263 265 265 251 223 227 228 235 235 233 215 183 192 203 216 223 229 231 231 230 230 229 231 233 233
245 236 230 229 233 233 234 229 232 231 229 232 239 244 249 247 245 246 254 261 263 258 236 239 231 235 242 235 213 202 204 195 212 220 225 228 228 228 229 227 226 228 229
250 243 240 235 234 235 237 234 232 235 232 232 236 238 244 247 248 248 248 249 253 261 253 229 239 242 240 230 202 225 231 184 198 212 215 216 218 223 223 221 221 221 222
270 262 248 243 241 240 238 236 235 233 231 232 236 241 242 244 240 239 240 244 246 259 268 263 245 257 267 255 191 225 229 165 181 200 204 207 209 212 214 212 208 209 211
272 268 261 255 249 244 241 236 239 237 234 235 238 239 243 250 247 246 242 246 248 248 256 265 268 260 260 278 269 255 244 236 193 167 176 187 195 199 199 198 202 201 200
313 300 282 263 257 247 243 239 241 242 240 239 240 243 246 236 232 249 251 251 256 264 258 260 268 266 247 256 264 265 263 220 172 121 134 140 155 165 170 174 177 180 187
26 3 340 317 302 287 266 256 246 242 240 243 241 242 246 241 239 235 242 249 250 251 255 257 257 273 262 252 237 228 250 290 181 127 124 112 109 119 127 132 138 137 131
50 36 22 14 360 346 318 278 235 232 230 246 269 257 268 260 246 241 234 244 252 251 237 244 249 254 255 255 250 227 202 103 305 95 92 108 112 115 115 118 117 114 114
58 54 40 30 26 16 4 6 117 119 123 95 5 3 37 52 50 20 292 258 247 245 237 229 227 247 275 290 286 285 242 152 55 7 103 105 122 114 113 108 99 91 95
64 60 54 47 43 40 39 38 39 68 69 70 57 48 55 75 82 85 70 59 45 24 341 323 243 311 327 335 344 296 272 249 202 36 66 72 72 80 78 77 85 92 95
71 67 62 60 58 50 48 51 56 71 68 62 61 61 55 62 75 92 91 85 68 56 46 33 52 35 26 10 340 329 14 350 14 314 198 86 66 67 73 81 87 87 86
74 70 65 65 66 56 45 49 61 80 73 63 59 61 67 67 69 84 89 81 69 57 53 58 65 49 39 19 357 21 125 120 116 59 350 59 65 66 77 88 96 94 88
77 72 68 65 65 58 40 40 54 85 79 69 64 60 66 77 64 73 91 89 82 76 72 73 71 71 62 43 13 45 87 112 92 71 27 18 26 21 103 112 115 114 108
82 79 72 64 61 58 42 34 36 87 86 83 75 69 62 67 62 58 86 94 91 84 85 88 84 81 70 64 43 27 16 24 59 81 61 360 59 343 81 107 109 134 125